Location: Newark
(52.2090°N, 4.1550°W)
Time: 20:05:23
(UTC+00:00)

Explorer 7 - Pass Details

Date: 26 September 2019
Orbit: 485 x 680 km, 50.3° (Epoch: 15 October)

Event Time Altitude Azimuth Distance (km) Brightness Sun altitude
Rises 21:20:38 0° 232° (SW) 2,749 10.5 -28.4°
Enters shadow 21:21:21 - 231° (SW) 2,472 10.3 -28.5°
Reaches altitude 10° 21:22:54 10° 225° (SW) 1,888 - -28.7°
Maximum altitude 21:26:58 41° 155° (SSE) 882 - -29.1°
Drops below altitude 10° 21:31:18 10° 86° (E) 2,011 - -29.6°
Sets 21:33:47 0° 79° (E) 2,952 - -29.9°
